Weather History for Thermopolis, WY

Change the Weather History Date:

Thursday, January 3, 2013

  Actual Average (KWRL) Record (KWRL)
Temperature  
Mean Temperature 20 °F 16 °F  
Max Temperature 24 °F 30 °F 51 °F (2012)
Min Temperature 17 °F 3 °F -25 °F (1974)
Degree Days  
Heating Degree Days 44 49  
Month to date heating degree days 147  
Since 1 July heating degree days 3510  
Cooling Degree Days 0 0  
Month to date cooling degree days 0  
Year to date cooling degree days 0  
Moisture  
Dew Point -7 °F    
Average Humidity 30    
Maximum Humidity 46    
Minimum Humidity 17    
Precipitation  
Precipitation 0.00 in 0.01 in 0.15 in (1977)
Month to date precipitation 0.02  
Year to date precipitation 0.02  
Sea Level Pressure  
Sea Level Pressure 30.25 in    
Wind  
Wind Speed 9 mph (South)    
Max Wind Speed 15 mph    
Max Gust Speed 17 mph    
Visibility 10 miles    
Events      
T = Trace of Precipitation, MM = Missing Value Source: NWS Daily Summary

Daily Weather History Graph

Daily Weather History Graph

Search for Another Location

Airport:

Trip Planner

Search our weather history database for the weather conditions in past years. The results will help you decide how hot, cold, wet, or windy it might be!

Date:

Astronomy

Jan. 03, 2013 Rise Set
Actual Time 7:45 AM MST 4:49 PM MST
Civil Twilight 7:13 AM MST 5:22 PM MST
Nautical Twilight 6:37 AM MST 5:57 PM MST
Astronomical Twilight 6:02 AM MST 6:32 PM MST
Moon 11:41 PM MST (1/3) 10:47 AM MST (1/3)
Length of Visible Light 10h 08m
Length of Day
9h 03m
Waning Gibbous, 65% of the Moon is Illuminated
Jan 3
Waning Gibbous
Jan 4
Last Quarter
Jan 11
New
Jan 18
First Quarter
Jan 26
Full

Hourly Weather History & Observations

Time (MST) Temp. Windchill Dew Point Humidity Pressure Visibility Wind Dir Wind Speed Gust Speed Precip Events Conditions
12:15 AM 17.6 °F 6.4 °F -5.8 °F 35% 30.28 in 10.0 mi West 9.2 mph - N/A   Clear
12:35 AM 17.6 °F 9.3 °F -5.8 °F 35% 30.28 in 10.0 mi West 5.8 mph - N/A   Clear
12:55 AM 19.4 °F 11.5 °F -5.8 °F 33% 30.28 in 10.0 mi WSW 5.8 mph - N/A   Clear
1:15 AM 19.4 °F 11.5 °F -5.8 °F 33% 30.28 in 10.0 mi West 5.8 mph - N/A   Clear
1:35 AM 19.4 °F 12.8 °F -4.0 °F 36% 30.28 in 10.0 mi SW 4.6 mph - N/A   Clear
1:55 AM 21.2 °F 14.9 °F -9.4 °F 26% 30.28 in 10.0 mi West 4.6 mph - N/A   Clear
2:15 AM 21.2 °F 14.9 °F -9.4 °F 26% 30.28 in 10.0 mi West 4.6 mph - N/A   Clear
2:35 AM 21.2 °F 13.6 °F -9.4 °F 26% 30.28 in 10.0 mi West 5.8 mph - N/A   Clear
2:55 AM 21.2 °F - -9.4 °F 26% 30.28 in 10.0 mi Calm Calm - N/A   Clear
3:15 AM 19.4 °F 12.8 °F -4.0 °F 36% 30.28 in 10.0 mi SSE 4.6 mph - N/A   Clear
3:35 AM 19.4 °F 12.8 °F -4.0 °F 36% 30.28 in 10.0 mi South 4.6 mph - N/A   Clear
3:55 AM 21.2 °F 12.6 °F -9.4 °F 26% 30.28 in 10.0 mi West 6.9 mph - N/A   Clear
4:15 AM 21.2 °F 11.7 °F -11.2 °F 24% 30.28 in 10.0 mi West 8.1 mph - N/A   Clear
4:35 AM 23.0 °F 15.8 °F -13.0 °F 20% 30.27 in 10.0 mi WSW 5.8 mph - N/A   Clear
4:55 AM 23.0 °F 15.8 °F -13.0 °F 20% 30.26 in 10.0 mi West 5.8 mph - N/A   Clear
5:15 AM 21.2 °F 12.6 °F -7.6 °F 28% 30.26 in 10.0 mi SSW 6.9 mph - N/A   Clear
5:35 AM 21.2 °F 10.9 °F -7.6 °F 28% 30.26 in 10.0 mi SSW 9.2 mph - N/A   Clear
5:55 AM 19.4 °F 8.6 °F -5.8 °F 33% 30.25 in 10.0 mi SSW 9.2 mph - N/A   Clear
6:15 AM 17.6 °F 5.0 °F -4.0 °F 38% 30.25 in 10.0 mi SSW 11.5 mph - N/A   Clear
6:35 AM 19.4 °F 6.6 °F -7.6 °F 30% 30.25 in 10.0 mi South 12.7 mph - N/A   Clear
7:15 AM 19.4 °F 5.5 °F -9.4 °F 28% 30.24 in 10.0 mi South 15.0 mph - N/A   Clear
7:35 AM 17.6 °F 3.7 °F -5.8 °F 35% 30.24 in 10.0 mi South 13.8 mph - N/A   Clear
7:55 AM 17.6 °F 5.0 °F -5.8 °F 35% 30.25 in 10.0 mi SSE 11.5 mph - N/A   Clear
8:15 AM 19.4 °F 6.6 °F -5.8 °F 33% 30.24 in 10.0 mi SSE 12.7 mph 17.3 mph N/A   Clear
8:35 AM 19.4 °F 6.0 °F -5.8 °F 33% 30.25 in 10.0 mi SSE 13.8 mph - N/A   Clear
8:55 AM 19.4 °F 6.0 °F -5.8 °F 33% 30.25 in 10.0 mi SSE 13.8 mph - N/A   Clear
9:15 AM 21.2 °F 9.5 °F -7.6 °F 28% 30.25 in 10.0 mi SSE 11.5 mph - N/A   Clear
9:35 AM 21.2 °F 9.5 °F -5.8 °F 30% 30.26 in 10.0 mi SSE 11.5 mph - N/A   Clear
9:55 AM 19.4 °F 7.2 °F -5.8 °F 33% 30.26 in 10.0 mi SSE 11.5 mph - N/A   Clear
10:15 AM 19.4 °F 6.0 °F -5.8 °F 33% 30.26 in 10.0 mi SSE 13.8 mph - N/A   Clear
10:35 AM 21.2 °F 10.1 °F -5.8 °F 30% 30.26 in 10.0 mi SSE 10.4 mph - N/A   Clear
10:55 AM 21.2 °F 9.5 °F -4.0 °F 33% 30.26 in 10.0 mi SSE 11.5 mph - N/A   Clear
11:15 AM 21.2 °F 8.3 °F -5.8 °F 30% 30.25 in 10.0 mi SSE 13.8 mph - N/A   Clear
11:35 AM 21.2 °F 9.5 °F -2.2 °F 36% 30.25 in 10.0 mi SSE 11.5 mph - N/A   Clear
11:55 AM 19.4 °F 6.6 °F 1.4 °F 46% 30.24 in 10.0 mi SSE 12.7 mph - N/A   Clear
12:15 PM 17.6 °F 5.7 °F -0.4 °F 45% 30.24 in 10.0 mi SSE 10.4 mph - N/A   Clear
12:35 PM 17.6 °F 5.7 °F -2.2 °F 42% 30.23 in 10.0 mi SSE 10.4 mph - N/A   Clear
1:15 PM 17.6 °F 6.4 °F -4.0 °F 38% 30.22 in 10.0 mi SSE 9.2 mph - N/A   Clear
1:35 PM 19.4 °F 7.9 °F -2.2 °F 39% 30.22 in 10.0 mi SE 10.4 mph - N/A   Clear
1:55 PM 17.6 °F 4.3 °F -4.0 °F 38% 30.22 in 10.0 mi SE 12.7 mph - N/A   Clear
2:15 PM 19.4 °F 6.6 °F -5.8 °F 33% 30.22 in 10.0 mi SE 12.7 mph - N/A   Clear
2:35 PM 19.4 °F 6.6 °F -4.0 °F 36% 30.22 in 10.0 mi SE 12.7 mph - N/A   Clear
3:15 PM 21.2 °F 9.5 °F -7.6 °F 28% 30.22 in 10.0 mi SE 11.5 mph - N/A   Clear
3:35 PM 19.4 °F 7.9 °F -4.0 °F 36% 30.23 in 10.0 mi SE 10.4 mph - N/A   Clear
3:55 PM 19.4 °F 6.6 °F -5.8 °F 33% 30.23 in 10.0 mi SE 12.7 mph - N/A   Clear
4:15 PM 19.4 °F 7.2 °F -5.8 °F 33% 30.23 in 10.0 mi SE 11.5 mph - N/A   Clear
4:35 PM 19.4 °F 8.6 °F -7.6 °F 30% 30.23 in 10.0 mi SSE 9.2 mph - N/A   Clear
4:55 PM 19.4 °F 8.6 °F -7.6 °F 30% 30.24 in 10.0 mi SE 9.2 mph - N/A   Clear
5:15 PM 21.2 °F 10.9 °F -11.2 °F 24% 30.24 in 10.0 mi SSE 9.2 mph - N/A   Clear
5:35 PM 21.2 °F 10.1 °F -13.0 °F 22% 30.24 in 10.0 mi SSE 10.4 mph - N/A   Clear
5:55 PM 23.0 °F 12.4 °F -13.0 °F 20% 30.24 in 10.0 mi SSE 10.4 mph - N/A   Clear
6:15 PM 23.0 °F 12.4 °F -11.2 °F 22% 30.24 in 10.0 mi SSE 10.4 mph - N/A   Clear
6:35 PM 23.0 °F 11.7 °F -11.2 °F 22% 30.24 in 10.0 mi SSE 11.5 mph - N/A   Clear
6:55 PM 23.0 °F 11.7 °F -11.2 °F 22% 30.24 in 10.0 mi SSE 11.5 mph - N/A   Clear
7:15 PM 21.2 °F 8.9 °F -11.2 °F 24% 30.24 in 10.0 mi SSE 12.7 mph - N/A   Clear
7:35 PM 23.0 °F 11.7 °F -13.0 °F 20% 30.24 in 10.0 mi South 11.5 mph - N/A   Clear
7:55 PM 23.0 °F 11.7 °F -13.0 °F 20% 30.24 in 10.0 mi South 11.5 mph - N/A   Clear
8:15 PM 23.0 °F 11.7 °F -11.2 °F 22% 30.24 in 10.0 mi South 11.5 mph - N/A   Clear
8:35 PM 24.8 °F 14.0 °F -14.8 °F 17% 30.24 in 10.0 mi South 11.5 mph - N/A   Clear
9:15 PM 19.4 °F 8.6 °F -4.0 °F 36% 30.23 in 10.0 mi SSE 9.2 mph - N/A   Clear
9:35 PM 21.2 °F 8.3 °F -9.4 °F 26% 30.23 in 10.0 mi South 13.8 mph - N/A   Clear
9:55 PM 24.8 °F 13.4 °F -13.0 °F 19% 30.23 in 10.0 mi SSE 12.7 mph - N/A   Clear
10:15 PM 21.2 °F 10.9 °F -7.6 °F 28% 30.23 in 10.0 mi SSE 9.2 mph - N/A   Clear
10:35 PM 21.2 °F 10.9 °F -7.6 °F 28% 30.24 in 10.0 mi SE 9.2 mph - N/A   Clear
10:55 PM 21.2 °F 11.7 °F -7.6 °F 28% 30.24 in 10.0 mi SSE 8.1 mph - N/A   Clear
11:15 PM 21.2 °F 10.9 °F -9.4 °F 26% 30.23 in 10.0 mi SSE 9.2 mph - N/A   Clear
11:35 PM 23.0 °F 11.1 °F -9.4 °F 24% 30.23 in 10.0 mi SSE 12.7 mph - N/A   Clear
11:55 PM 23.0 °F 11.1 °F -9.4 °F 24% 30.23 in 10.0 mi SSE 12.7 mph - N/A   Clear